tDAR Logo tDAR digital antiquity

California Department of Forestry 1948 Aerial Photos: Flightline 15 (Humboldt County)

Creator(s): California Department of Forestry

Year: 1948

» Downloads & Basic Metadata

Summary

A series of aerial photos taken from 1947 to 1948 by the California Department of Forestry in Humboldt County.


Cite this Record

California Department of Forestry 1948 Aerial Photos: Flightline 15 (Humboldt County). California Department of Forestry. 1948. Humboldt State University, Cultural Resources Facility ( tDAR id: 370092) ; doi:10.6067/XCV8MP527S





Keywords


Temporal Coverage

Calendar Date: 1947 to 1948


Spatial Coverage

min long: -124.662; min lat: 39.935 ; max long: -123.311; max lat: 42.115 ;

File Information

  Name Size Creation Date Date Uploaded Access
a48-hum-cdf2-15-004.jpg 4.42mb Oct 28, 2011 1:56:03 PM Public
a48-hum-cdf2-15-005.jpg 4.34mb Oct 28, 2011 1:56:29 PM Public
a48-hum-cdf2-15-006.jpg 4.70mb Oct 28, 2011 1:56:35 PM Public
a48-hum-cdf2-15-007.jpg 4.83mb Oct 28, 2011 1:56:41 PM Public
a48-hum-cdf2-15-008.jpg 4.74mb Oct 28, 2011 1:56:51 PM Public
a48-hum-cdf2-15-009.jpg 4.46mb Oct 28, 2011 1:56:57 PM Public
a48-hum-cdf2-15-010.jpg 4.50mb Oct 28, 2011 1:58:09 PM Public
a48-hum-cdf2-15-011.jpg 4.75mb Oct 28, 2011 1:58:37 PM Public
a48-hum-cdf2-15-012.jpg 5.06mb Oct 28, 2011 1:58:43 PM Public
a48-hum-cdf2-15-013.jpg 5.17mb Oct 28, 2011 1:58:50 PM Public
a48-hum-cdf2-15-014.jpg 5.01mb Oct 28, 2011 1:58:56 PM Public
a48-hum-cdf2-15-015.jpg 5.10mb Oct 28, 2011 1:59:05 PM Public
a48-hum-cdf2-15-016.jpg 5.17mb Oct 28, 2011 1:59:16 PM Public
a48-hum-cdf2-15-017.jpg 5.21mb Oct 28, 2011 1:59:21 PM Public
a48-hum-cdf2-15-018.jpg 5.08mb Oct 28, 2011 1:59:26 PM Public
a48-hum-cdf2-15-019.jpg 4.74mb Oct 28, 2011 1:59:32 PM Public
a48-hum-cdf2-15-020.jpg 4.87mb Oct 28, 2011 1:59:37 PM Public
a48-hum-cdf2-15-021.jpg 4.72mb Oct 28, 2011 2:00:13 PM Public
a48-hum-cdf2-15-022.jpg 4.74mb Oct 28, 2011 2:00:22 PM Public
a48-hum-cdf2-15-023.jpg 4.79mb Oct 28, 2011 2:00:27 PM Public
a48-hum-cdf2-15-024.jpg 4.74mb Oct 28, 2011 2:00:32 PM Public
a48-hum-cdf2-15-025.jpg 4.73mb Oct 28, 2011 2:00:38 PM Public
a48-hum-cdf2-15-026.jpg 4.79mb Oct 28, 2011 2:00:48 PM Public
a48-hum-cdf2-15-027.jpg 4.84mb Oct 28, 2011 2:04:03 PM Public
a48-hum-cdf2-15-028.jpg 4.71mb Oct 28, 2011 2:04:33 PM Public
a48-hum-cdf2-15-029.jpg 4.45mb Oct 28, 2011 2:05:02 PM Public
a48-hum-cdf2-15-030.jpg 4.33mb Oct 28, 2011 2:05:34 PM Public
a48-hum-cdf2-15-031.jpg 3.85mb Oct 28, 2011 2:06:06 PM Public
a48-hum-cdf2-15-032.jpg 3.83mb Oct 28, 2011 2:06:39 PM Public
a48-hum-cdf2-15-033.jpg 4.13mb Oct 28, 2011 2:06:46 PM Public
a48-hum-cdf2-15-034.jpg 4.56mb Oct 28, 2011 2:07:22 PM Public
a48-hum-cdf2-15-035.jpg 4.76mb Oct 28, 2011 2:07:46 PM Public
a48-hum-cdf2-15-036.jpg 4.83mb Oct 28, 2011 2:07:52 PM Public
a48-hum-cdf2-15-037.jpg 4.83mb Oct 28, 2011 2:07:58 PM Public
a48-hum-cdf2-15-038.jpg 4.97mb Oct 28, 2011 2:08:06 PM Public
a48-hum-cdf2-15-039.jpg 4.93mb Oct 28, 2011 2:08:50 PM Public
a48-hum-cdf2-15-040.jpg 5.00mb Oct 28, 2011 2:09:25 PM Public
a48-hum-cdf2-15-041.jpg 4.99mb Oct 28, 2011 2:09:36 PM Public
a48-hum-cdf2-15-042.jpg 5.05mb Oct 28, 2011 2:09:41 PM Public
a48-hum-cdf2-15-043.jpg 5.13mb Oct 28, 2011 2:10:05 PM Public
a48-hum-cdf2-15-044.jpg 5.38mb Oct 28, 2011 2:10:33 PM Public
a48-hum-cdf2-15-045.jpg 5.34mb Oct 28, 2011 2:10:39 PM Public
a48-hum-cdf2-15-046.jpg 5.28mb Oct 28, 2011 2:10:44 PM Public
a48-hum-cdf2-15-047.jpg 5.42mb Oct 28, 2011 2:10:49 PM Public
a48-hum-cdf2-15-048.jpg 5.07mb Oct 28, 2011 2:11:20 PM Public
a48-hum-cdf2-15-049.jpg 5.08mb Oct 28, 2011 2:11:54 PM Public
a48-hum-cdf2-15-050.jpg 5.28mb Oct 28, 2011 2:12:04 PM Public
a48-hum-cdf2-15-051.jpg 5.15mb Oct 28, 2011 2:12:09 PM Public
a48-hum-cdf2-15-052.jpg 5.03mb Oct 28, 2011 2:12:15 PM Public
a48-hum-cdf2-15-053.jpg 5.21mb Oct 28, 2011 2:12:20 PM Public
a48-hum-cdf2-15-054.jpg 5.14mb Oct 28, 2011 2:12:51 PM Public
a48-hum-cdf2-15-055.jpg 5.19mb Oct 28, 2011 2:12:58 PM Public
a48-hum-cdf2-15-056.jpg 5.20mb Oct 28, 2011 2:13:04 PM Public
a48-hum-cdf2-15-057.jpg 5.25mb Oct 28, 2011 2:13:09 PM Public
a48-hum-cdf2-15-058.jpg 5.16mb Oct 28, 2011 2:13:22 PM Public
a48-hum-cdf2-15-059.jpg 5.17mb Oct 28, 2011 2:24:53 PM Public
a48-hum-cdf2-15-060.jpg 5.11mb Oct 28, 2011 2:25:07 PM Public
a48-hum-cdf2-15-065.jpg 4.96mb Oct 28, 2011 2:14:25 PM Public
a48-hum-cdf2-15-066.jpg 5.19mb Oct 28, 2011 2:25:46 PM Public
a48-hum-cdf2-15-067.jpg 5.03mb Oct 28, 2011 2:26:43 PM Public
a48-hum-cdf2-15-061.jpg 5.09mb Oct 28, 2011 2:25:18 PM Confidential
a48-hum-cdf2-15-068.jpg 5.00mb Oct 28, 2011 2:15:06 PM Public
a48-hum-cdf2-15-069.jpg 5.06mb Oct 28, 2011 2:27:14 PM Public
a48-hum-cdf2-15-064.jpg 5.06mb Oct 28, 2011 2:25:24 PM Public
a48-hum-cdf2-15-070.jpg 4.97mb Oct 28, 2011 2:27:36 PM Public
a48-hum-cdf2-15-071.jpg 4.77mb Oct 28, 2011 2:28:04 PM Public
a48-hum-cdf2-15-072.jpg 4.93mb Oct 28, 2011 2:28:12 PM Public
a48-hum-cdf2-15-073.jpg 4.88mb Oct 28, 2011 2:28:25 PM Public
a48-hum-cdf2-15-074.jpg 4.97mb Oct 28, 2011 2:28:31 PM Public
a48-hum-cdf2-15-075.jpg 4.92mb Oct 28, 2011 2:23:34 PM Public
a48-hum-cdf2-15-076.jpg 5.13mb Oct 28, 2011 2:28:46 PM Public
a48-hum-cdf2-15-077.jpg 5.34mb Oct 28, 2011 2:28:52 PM Public
a48-hum-cdf2-15-078.jpg 5.29mb Oct 28, 2011 2:24:08 PM Public
a48-hum-cdf2-15-079.jpg 5.24mb Oct 28, 2011 2:24:17 PM Public
a48-hum-cdf2-15-080.jpg 5.04mb Oct 28, 2011 2:31:40 PM Public
a48-hum-cdf2-15-081.jpg 5.04mb Oct 28, 2011 2:31:54 PM Public
a48-hum-cdf2-15-082.jpg 5.19mb Oct 28, 2011 2:32:12 PM Public
a48-hum-cdf2-15-083.jpg 5.27mb Oct 28, 2011 2:26:07 PM Public
a48-hum-cdf2-15-084.jpg 5.44mb Oct 28, 2011 2:32:42 PM Public
a48-hum-cdf2-15-085.jpg 5.41mb Oct 28, 2011 2:29:01 PM Public
a48-hum-cdf2-15-086.jpg 5.50mb Oct 28, 2011 2:33:56 PM Public
a48-hum-cdf2-15-087.jpg 5.40mb Oct 28, 2011 2:34:40 PM Public
a48-hum-cdf2-15-088.jpg 5.36mb Oct 28, 2011 2:31:11 PM Public
a48-hum-cdf2-15-089.jpg 4.87mb Oct 28, 2011 2:35:40 PM Public
a48-hum-cdf2-15-090.jpg 4.62mb Oct 28, 2011 2:31:35 PM Public
a48-hum-cdf2-15-091.jpg 4.81mb Oct 28, 2011 2:32:01 PM Public
a48-hum-cdf2-15-092.jpg 4.84mb Oct 28, 2011 2:33:04 PM Public
a48-hum-cdf2-15-093.jpg 4.50mb Oct 28, 2011 2:33:18 PM Public
a48-hum-cdf2-15-094.jpg 4.63mb Oct 28, 2011 2:37:44 PM Public
a48-hum-cdf2-15-095.jpg 4.76mb Oct 28, 2011 2:37:37 PM Public
a48-hum-cdf2-15-096.jpg 4.82mb Oct 28, 2011 2:42:00 PM Public
a48-hum-cdf2-15-097.jpg 4.80mb Oct 28, 2011 2:43:00 PM Public
a48-hum-cdf2-15-098.jpg 5.02mb Oct 28, 2011 2:38:36 PM Public
a48-hum-cdf2-15-099.jpg 4.84mb Oct 28, 2011 2:43:19 PM Public
a48-hum-cdf2-15-100.jpg 4.84mb Oct 28, 2011 2:43:27 PM Public
a48-hum-cdf2-15-101.jpg 5.06mb Oct 28, 2011 2:38:57 PM Public
a48-hum-cdf2-15-102.jpg 5.38mb Oct 28, 2011 2:43:44 PM Public
a48-hum-cdf2-15-103.jpg 5.39mb Oct 28, 2011 2:44:30 PM Public
a48-hum-cdf2-15-136.jpg 4.74mb Oct 28, 2011 2:45:34 PM Public
a48-hum-cdf2-15-137.jpg 4.85mb Oct 28, 2011 2:45:44 PM Public
a48-hum-cdf2-15-138.jpg 5.27mb Oct 28, 2011 2:44:01 PM Public
a48-hum-cdf2-15-139.jpg 5.03mb Oct 28, 2011 2:46:00 PM Public
a48-hum-cdf2-15-140.jpg 4.95mb Oct 28, 2011 2:45:26 PM Public
a48-hum-cdf2-15-141.jpg 4.91mb Oct 28, 2011 2:46:10 PM Public
a48-hum-cdf2-15-142.jpg 5.00mb Oct 28, 2011 2:46:42 PM Public
a48-hum-cdf2-15-143.jpg 5.28mb Oct 28, 2011 2:46:45 PM Public
a48-hum-cdf2-15-144.jpg 5.24mb Oct 28, 2011 2:48:10 PM Public
a48-hum-cdf2-15-145.jpg 5.31mb Oct 28, 2011 2:47:03 PM Public
a48-hum-cdf2-15-146.jpg 5.31mb Oct 28, 2011 2:49:06 PM Public
a48-hum-cdf2-15-147.jpg 5.25mb Oct 28, 2011 2:47:31 PM Public
a48-hum-cdf2-15-148.jpg 5.18mb Oct 28, 2011 2:47:37 PM Public
a48-hum-cdf2-15-149.jpg 5.09mb Oct 28, 2011 2:49:47 PM Public
a48-hum-cdf2-15-150.jpg 4.94mb Oct 28, 2011 2:50:41 PM Public
a48-hum-cdf2-15-151.jpg 4.97mb Oct 28, 2011 2:47:58 PM Public
a48-hum-cdf2-15-152.jpg 5.06mb Oct 28, 2011 2:48:34 PM Public
a48-hum-cdf2-15-153.jpg 5.08mb Oct 28, 2011 2:54:36 PM Public
a48-hum-cdf2-15-154.jpg 4.94mb Oct 28, 2011 2:55:28 PM Public
a48-hum-cdf2-15-155.jpg 4.70mb Oct 28, 2011 2:49:12 PM Public
a48-hum-cdf2-15-156.jpg 4.92mb Oct 28, 2011 2:49:24 PM Public
a48-hum-cdf2-15-157.jpg 5.04mb Oct 28, 2011 2:49:35 PM Public
a48-hum-cdf2-15-158.jpg 4.87mb Oct 28, 2011 2:49:58 PM Public
a48-hum-cdf2-15-181.jpg 4.79mb Oct 28, 2011 2:50:14 PM Public
a48-hum-cdf2-15-182.jpg 4.69mb Oct 28, 2011 2:50:22 PM Public
a48-hum-cdf2-15-183.jpg 4.54mb Oct 28, 2011 2:57:53 PM Public
a48-hum-cdf2-15-184.jpg 4.24mb Oct 28, 2011 2:58:08 PM Public
a48-hum-cdf2-15-185.jpg 4.15mb Oct 28, 2011 2:58:26 PM Public
a48-hum-cdf2-15-186.jpg 4.36mb Oct 28, 2011 2:58:46 PM Public
a48-hum-cdf2-15-187.jpg 4.44mb Oct 28, 2011 2:59:05 PM Public
a48-hum-cdf2-15-188.jpg 4.59mb Oct 28, 2011 2:52:23 PM Public
a48-hum-cdf2-15-189.jpg 4.34mb Oct 28, 2011 2:59:44 PM Public
a48-hum-cdf2-15-190.jpg 4.14mb Oct 28, 2011 2:53:16 PM Public
a48-hum-cdf2-15-191.jpg 4.20mb Oct 28, 2011 3:00:14 PM Public
a48-hum-cdf2-15-192.jpg 4.13mb Oct 28, 2011 2:53:38 PM Public
a48-hum-cdf2-15-193.jpg 4.03mb Oct 28, 2011 3:00:56 PM Public
a48-hum-cdf2-15-194.jpg 4.18mb Oct 28, 2011 2:53:58 PM Public
a48-hum-cdf2-15-195.jpg 4.23mb Oct 28, 2011 2:54:10 PM Public
a48-hum-cdf2-15-196.jpg 4.34mb Oct 28, 2011 3:03:12 PM Public
a48-hum-cdf2-15-197.jpg 4.55mb Oct 28, 2011 2:54:45 PM Public
a48-hum-cdf2-15-198.jpg 4.69mb Oct 28, 2011 3:04:01 PM Public
a48-hum-cdf2-15-199.jpg 4.33mb Oct 28, 2011 2:57:52 PM Public
a48-hum-cdf2-15-200.jpg 4.27mb Oct 28, 2011 2:58:45 PM Public
a48-hum-cdf2-15-201.jpg 4.29mb Oct 28, 2011 2:59:38 PM Public
a48-hum-cdf2-15-201.jpg 4.29mb Oct 28, 2011 3:04:38 PM Public
a48-hum-cdf2-15-202.jpg 4.53mb Oct 28, 2011 3:06:28 PM Public
a48-hum-cdf2-15-202.jpg 4.53mb Oct 28, 2011 3:00:23 PM Public
a48-hum-cdf2-15-203.jpg 4.31mb Oct 28, 2011 3:07:07 PM Public
a48-hum-cdf2-15-203.jpg 4.31mb Oct 28, 2011 3:02:38 PM Public
a48-hum-cdf2-15-204.jpg 4.08mb Oct 28, 2011 3:08:02 PM Public
a48-hum-cdf2-15-204.jpg 4.08mb Oct 28, 2011 3:02:47 PM Public
flightline-15e.jpg 1.01mb Nov 3, 2011 12:23:08 PM Public
flightline-15w.jpg 802.66kb Nov 3, 2011 12:23:14 PM Public
Arizona State University The Andrew W. Mellon Foundation National Science Foundation National Endowment for the Humanities Society for American Archaeology Archaeological Institute of America